When you browse on this site, cookies collect data to enhance your experience and personalize the content and advertising you see.
Visit our Privacy Policy to learn more. By continuing to use the site, you agree to this use of cookies and data.
  • In Sweden
  • List of Countries
  • For 7 days
  • Water Temperature
  • Weather Map
  • Weather Widgets
  • user-avatar
    Login

    Hourly Weather Pretoria

    Today, 12 November, Tuesday

    Time Temperature Precipitation Wind Pressure Humidity
    00:00 +24°C° 1.6 mm 2 mps 654 mmHg 69%
    01:00 +23°C° 1.6 mm 2 mps 653 mmHg 70%
    02:00 +22°C° 1.6 mm 1 mps 653 mmHg 71%
    03:00 +21°C° 0.4 mm 2 mps 653 mmHg 75%
    04:00 +20°C° 0.4 mm 2 mps 653 mmHg 79%
    05:00 +19°C° 0.4 mm 2 mps 652 mmHg 83%
    06:00 +20°C° 0 mm 3 mps 653 mmHg 79%
    07:00 +21°C° 0 mm 4 mps 654 mmHg 75%
    08:00 +22°C° 0 mm 5 mps 654 mmHg 71%
    09:00 +23°C° 0.3 mm 5 mps 654 mmHg 65%
    10:00 +25°C° 0.3 mm 5 mps 654 mmHg 60%
    11:00 +27°C° 0.3 mm 5 mps 654 mmHg 55%
    12:00 +27°C° 0.8 mm 5 mps 654 mmHg 53%
    13:00 +28°C° 0.8 mm 5 mps 654 mmHg 52%
    14:00 +28°C° 0.8 mm 5 mps 653 mmHg 51%
    15:00 +27°C° 3.3 mm 5 mps 653 mmHg 57%
    16:00 +25°C° 3.3 mm 5 mps 652 mmHg 64%
    17:00 +23°C° 3.3 mm 5 mps 652 mmHg 71%
    18:00 +22°C° 1 mm 5 mps 652 mmHg 73%
    19:00 +21°C° 1 mm 5 mps 653 mmHg 76%
    20:00 +21°C° 1 mm 4 mps 653 mmHg 79%
    21:00 +20°C° 0.1 mm 4 mps 653 mmHg 81%
    22:00 +20°C° 0.1 mm 4 mps 653 mmHg 84%
    23:00 +20°C° 0.1 mm 4 mps 653 mmHg 87%

    Tomorrow, 13 November, Wednesday

    Time Temperature Precipitation Wind Pressure Humidity
    00:00 +19°C° 0 mm 4 mps 653 mmHg 87%
    01:00 +19°C° 0 mm 5 mps 653 mmHg 87%
    02:00 +19°C° 0 mm 5 mps 652 mmHg 88%
    03:00 +19°C° 0 mm 4 mps 652 mmHg 88%
    04:00 +19°C° 0 mm 4 mps 652 mmHg 88%
    05:00 +19°C° 0 mm 3 mps 653 mmHg 88%
    06:00 +19°C° 0 mm 3 mps 653 mmHg 85%
    07:00 +20°C° 0 mm 3 mps 653 mmHg 81%
    08:00 +21°C° 0 mm 4 mps 654 mmHg 78%
    09:00 +22°C° 0 mm 4 mps 654 mmHg 70%
    10:00 +25°C° 0 mm 4 mps 654 mmHg 63%
    11:00 +27°C° 0 mm 5 mps 655 mmHg 55%
    12:00 +28°C° 0.4 mm 4 mps 654 mmHg 51%
    13:00 +29°C° 0.4 mm 4 mps 654 mmHg 47%
    14:00 +30°C° 0.4 mm 4 mps 654 mmHg 43%
    15:00 +30°C° 0.5 mm 4 mps 653 mmHg 44%
    16:00 +29°C° 0.5 mm 4 mps 653 mmHg 45%
    17:00 +29°C° 0.5 mm 4 mps 652 mmHg 46%
    18:00 +26°C° 2.3 mm 5 mps 652 mmHg 54%
    19:00 +22°C° 2.3 mm 7 mps 653 mmHg 62%
    20:00 +20°C° 2.3 mm 8 mps 653 mmHg 71%
    21:00 +18°C° 1.1 mm 7 mps 653 mmHg 71%
    22:00 +19°C° 1.1 mm 5 mps 653 mmHg 71%
    23:00 +19°C° 1.1 mm 3 mps 653 mmHg 71%

    Day after tomorrow, 14 November, Thursday

    Time Temperature Precipitation Wind Pressure Humidity
    00:00 +19°C° 0 mm 3 mps 652 mmHg 73%
    01:00 +19°C° 0 mm 2 mps 652 mmHg 75%
    02:00 +18°C° 0 mm 2 mps 651 mmHg 76%
    03:00 +18°C° 0 mm 2 mps 652 mmHg 78%
    04:00 +19°C° 0 mm 1 mps 652 mmHg 80%
    05:00 +19°C° 0 mm 1 mps 652 mmHg 82%
    06:00 +19°C° 0.5 mm 2 mps 652 mmHg 78%
    07:00 +20°C° 0.5 mm 2 mps 652 mmHg 74%
    08:00 +21°C° 0.5 mm 3 mps 653 mmHg 70%
    09:00 +23°C° 0.2 mm 4 mps 653 mmHg 63%
    10:00 +25°C° 0.2 mm 4 mps 653 mmHg 57%
    11:00 +27°C° 0.2 mm 4 mps 652 mmHg 51%
    12:00 +28°C° 0.4 mm 5 mps 652 mmHg 44%
    13:00 +29°C° 0.4 mm 5 mps 652 mmHg 37%
    14:00 +30°C° 0.4 mm 5 mps 651 mmHg 30%
    15:00 +29°C° 0.1 mm 5 mps 651 mmHg 30%
    16:00 +29°C° 0.1 mm 5 mps 651 mmHg 31%
    17:00 +28°C° 0.1 mm 5 mps 651 mmHg 31%
    18:00 +27°C° 0 mm 4 mps 651 mmHg 34%
    19:00 +26°C° 0 mm 3 mps 651 mmHg 36%
    20:00 +25°C° 0 mm 2 mps 651 mmHg 39%
    21:00 +24°C° 0 mm 2 mps 651 mmHg 45%
    22:00 +21°C° 0 mm 3 mps 651 mmHg 51%
    23:00 +20°C° 0 mm 4 mps 651 mmHg 57%

    15 November, Friday

    Time Temperature Precipitation Wind Pressure Humidity
    00:00 +20°C° 0 mm 4 mps 651 mmHg 60%
    01:00 +19°C° 0 mm 4 mps 651 mmHg 63%
    02:00 +18°C° 0 mm 4 mps 651 mmHg 66%
    03:00 +17°C° 0 mm 5 mps 651 mmHg 67%
    04:00 +16°C° 0 mm 6 mps 651 mmHg 68%
    05:00 +16°C° 0 mm 8 mps 651 mmHg 69%
    06:00 +17°C° 0 mm 7 mps 651 mmHg 63%
    07:00 +18°C° 0 mm 7 mps 652 mmHg 56%
    08:00 +21°C° 0 mm 6 mps 652 mmHg 50%
    09:00 +23°C° 0 mm 6 mps 653 mmHg 46%
    10:00 +24°C° 0 mm 6 mps 653 mmHg 41%
    11:00 +27°C° 0 mm 5 mps 653 mmHg 37%
    12:00 +28°C° 0 mm 5 mps 653 mmHg 34%
    13:00 +28°C° 0 mm 4 mps 652 mmHg 32%
    14:00 +29°C° 0 mm 4 mps 652 mmHg 29%
    15:00 +28°C° 0 mm 4 mps 652 mmHg 32%
    16:00 +28°C° 0 mm 4 mps 652 mmHg 34%
    17:00 +27°C° 0 mm 5 mps 651 mmHg 37%
    18:00 +26°C° 0 mm 5 mps 651 mmHg 42%
    19:00 +23°C° 0 mm 5 mps 651 mmHg 48%
    20:00 +22°C° 0 mm 6 mps 651 mmHg 53%
    21:00 +21°C° 0 mm 5 mps 652 mmHg 57%
    22:00 +20°C° 0 mm 5 mps 652 mmHg 60%
    23:00 +20°C° 0 mm 5 mps 652 mmHg 64%

    16 November, Saturday

    Time Temperature Precipitation Wind Pressure Humidity
    00:00 +19°C° 0 mm 5 mps 651 mmHg 66%
    01:00 +17°C° 0 mm 5 mps 651 mmHg 68%
    02:00 +18°C° 0 mm 4 mps 651 mmHg 70%
    03:00 +17°C° 0 mm 4 mps 650 mmHg 71%
    04:00 +17°C° 0 mm 3 mps 650 mmHg 72%
    05:00 +17°C° 0 mm 3 mps 650 mmHg 72%
    06:00 +18°C° 0 mm 2 mps 651 mmHg 65%
    07:00 +20°C° 0 mm 2 mps 651 mmHg 59%
    08:00 +21°C° 0 mm 2 mps 652 mmHg 52%
    09:00 +24°C° 0 mm 2 mps 652 mmHg 47%
    10:00 +26°C° 0 mm 2 mps 652 mmHg 43%
    11:00 +27°C° 0 mm 2 mps 653 mmHg 38%
    12:00 +28°C° 0 mm 2 mps 652 mmHg 35%
    13:00 +29°C° 0 mm 2 mps 652 mmHg 32%
    14:00 +30°C° 0 mm 2 mps 651 mmHg 28%
    15:00 +30°C° 0 mm 2 mps 651 mmHg 29%
    16:00 +30°C° 0 mm 2 mps 651 mmHg 29%
    17:00 +30°C° 0 mm 2 mps 651 mmHg 29%
    18:00 +29°C° 0 mm 2 mps 651 mmHg 31%
    19:00 +28°C° 0 mm 2 mps 651 mmHg 33%
    20:00 +28°C° 0 mm 2 mps 651 mmHg 35%
    21:00 +27°C° 0 mm 2 mps 651 mmHg 36%
    22:00 +27°C° 0 mm 3 mps 651 mmHg 37%
    23:00 +26°C° 0 mm 3 mps 651 mmHg 39%

    17 November, Sunday

    Time Temperature Precipitation Wind Pressure Humidity
    00:00 +25°C° 0 mm 3 mps 651 mmHg 43%
    01:00 +23°C° 0 mm 4 mps 650 mmHg 48%
    02:00 +22°C° 0 mm 5 mps 650 mmHg 53%
    03:00 +22°C° 0 mm 5 mps 650 mmHg 57%
    04:00 +21°C° 0 mm 5 mps 650 mmHg 61%
    05:00 +20°C° 0 mm 4 mps 650 mmHg 65%
    06:00 +21°C° 0 mm 4 mps 651 mmHg 61%
    07:00 +22°C° 0 mm 4 mps 651 mmHg 57%
    08:00 +23°C° 0 mm 4 mps 652 mmHg 53%
    09:00 +26°C° 0 mm 5 mps 652 mmHg 47%
    10:00 +28°C° 0 mm 5 mps 652 mmHg 42%
    11:00 +30°C° 0 mm 5 mps 653 mmHg 37%
    12:00 +32°C° 0 mm 5 mps 653 mmHg 33%
    13:00 +33°C° 0 mm 5 mps 652 mmHg 30%
    14:00 +34°C° 0 mm 5 mps 652 mmHg 27%
    15:00 +33°C° 0 mm 6 mps 652 mmHg 28%
    16:00 +33°C° 0 mm 6 mps 652 mmHg 28%
    17:00 +33°C° 0 mm 6 mps 651 mmHg 29%
    18:00 +29°C° 0.6 mm 6 mps 651 mmHg 39%
    19:00 +26°C° 0.6 mm 5 mps 651 mmHg 50%
    20:00 +23°C° 0.6 mm 5 mps 651 mmHg 61%
    21:00 +23°C° 0.1 mm 4 mps 651 mmHg 62%
    22:00 +22°C° 0.1 mm 4 mps 651 mmHg 62%
    23:00 +22°C° 0.1 mm 3 mps 651 mmHg 63%
    Show more